Content
SEND FEEDBACK

Daily
Averages
Monthly
Summary
Algeria

BATNA, ALGERIA


Home > Africa > Algeria
Elevation: 3451 feet     Latitude: 35 33N     Longitude: 006 11E

WEATHER
 
SELECT A DAY
Number of Records: 118,279;   Date Range: 9/25/01 - 8/26/14
 
SHARE

PRINT THIS DATA

[ ← Previous Day ]
WEATHER ALMANAC - JANUARY 31, 2013
[ Next Day → ]
[ °C ]   °F
Weather ElementAverageHighLow
Temperature47.4 °F64.4 °F (2:00 pm)30 °F (7:00 am)
Dewpoint31.7 °F37.4 °F (9:00 pm)26.6 °F (2:00 am)
Humidity57.3 %87 % (4:00 am)17 % (1:00 pm)
Barometer30.44 in30.48 in (10:00 am)30.39 in (1:00 am)
Wind Speed8.2 mph11.5 mph (8:00 am)
Weather ElementAverage
Visibility9.3 mi
Wind DirectionESE (126.9 °)

Weather ElementTotal
Precipitation---
Heating Degree Days17.8 (Base 65)
Averaged from 29 records on January 31, 2013
WEATHER CONDITIONS BREAKOUT
WIND DIRECTION BREAKOUT
WEATHER BY HOUR - JANUARY 31, 2013
[ °C ]   °F
Local TimeTemperatureDewpointHumidityBarometerVisibilityWind DirectionWind SpeedGust SpeedPrecipitationEventsConditions
1:00 AM36.0 °F28.0 °F63 %6.0 miESE (120°)9.2 mphClear
1:00 AM35.6 °F28.4 °F75 %30.39 inESE (120°)9.2 mphClear
2:00 AM33.8 °F26.6 °F75 %30.39 inSSE (150°)6.9 mphClear
4:00 AM34.0 °F29.0 °F77 %6.0 miESE (110°)9.2 mphClear
4:00 AM33.8 °F30.2 °F87 %30.39 inESE (110°)9.2 mphClear
6:00 AM32.0 °F28.4 °F87 %30.39 inEast (100°)6.9 mphClear
7:00 AM30.2 °F26.6 °F86 %30.42 inESE (120°)9.2 mphClear
7:00 AM30.0 °F27.0 °F85 %6.0 miESE (120°)9.2 mphClear
8:00 AM32.0 °F28.4 °F87 %30.45 inSE (130°)11.5 mphClear
9:00 AM39.2 °F32.0 °F75 %30.45 inESE (120°)9.2 mphClear
10:00 AM45.0 °F35.0 °F59 %12.0 miSSW (210°)9.2 mphClear
10:00 AM44.6 °F35.6 °F71 %30.48 inSSW (210°)9.2 mphClear
11:00 AM53.6 °F26.6 °F35 %30.48 inWSW (250°)6.9 mphClear
12:00 PM59.0 °F26.6 °F29 %30.48 inNW (320°)6.9 mphClear
1:00 PM60.8 °F28.4 °F29 %30.48 inNorth (360°)11.5 mphClear
1:00 PM61.0 °F28.0 °F17 %16.0 miNorth11.5 mphClear
2:00 PM64.4 °F33.8 °F32 %30.48 inNW (320°)6.9 mphClear
3:00 PM64.4 °F30.2 °F28 %30.45 inNNE (30°)11.5 mphClear
4:00 PM64.0 °F33.0 °F20 %16.0 miEast (80°)6.9 mphClear
4:00 PM64.4 °F33.8 °F32 %30.45 inEast (80°)6.9 mphClear
5:00 PM62.6 °F33.8 °F34 %30.45 inNNE (30°)6.9 mphClear
6:00 PM60.8 °F35.6 °F39 %30.45 inENE (70°)9.2 mphClear
7:00 PM53.6 °F35.6 °F51 %30.45 inNE (50°)9.2 mphClear
7:00 PM54.0 °F35.0 °F37 %6.0 miNE (50°)9.2 mphClear
8:00 PM50.0 °F35.6 °F58 %30.45 inEast (100°)6.9 mphClear
9:00 PM46.4 °F37.4 °F71 %30.45 inESE (110°)6.9 mphClear
10:00 PM45.0 °F37.0 °F66 %6.0 miEast (80°)4.6 mph
10:00 PM44.6 °F37.4 °F76 %30.45 inEast (80°)4.6 mphClear
11:00 PM41.0 °F35.6 °F81 %30.45 inNE (50°)4.6 mphClear
Hourly data recorded from DABT, located miles away from Batna, Algeria







STORIES FROM OUR PARTNERS